Probability
0 0 0 0 0 0 0 0 0 0 0 0 3 0 0 0 3 3 6 13 10 10 13 13 10 19 35 48 55 55 71 81 77 71 65 65 61 58 65 71 68 65 58 65
0 0 0 0 0 0 0 0 0 0 0 0 0 0 0 0 0 0 6 16 6 6 16 23 23 26 42 55 58 65 65 68 74 77 81 65 68 68 61 71 77 65 65 61
0 0 0 0 0 0 0 0 0 0 0 0 0 0 0 0 0 3 10 10 13 6 16 29 23 32 32 42 55 52 68 71 71 74 74 74 74 65 61 68 68 65 61 68
0 0 0 0 0 0 0 0 0 0 0 0 0 0 3 3 6 0 6 10 13 6 16 26 26 35 35 45 48 65 68 74 81 77 71 74 71 65 68 71 71 68 65 65
0 0 0 0 0 0 0 0 0 0 0 0 0 0 0 10 10 6 19 10 6 10 19 29 23 35 32 39 45 65 68 74 81 77 77 77 74 71 74 74 68 71 61 52
0 0 0 0 0 0 0 0 0 0 0 0 0 0 0 3 10 6 10 26 13 6 13 26 26 39 35 39 42 55 65 77 77 81 77 77 71 71 68 68 65 68 58 65
0 0 0 0 0 0 0 0 0 0 0 0 0 0 0 0 6 6 16 23 16 13 19 19 26 45 42 42 48 61 61 71 71 74 77 77 81 71 68 65 61 58 48 58
0 0 0 0 0 0 0 0 0 0 0 0 0 3 0 0 3 3 16 16 10 19 23 23 35 48 42 48 61 61 65 71 68 71 77 81 81 71 65 65 61 61 58 55
0 0 0 0 0 0 0 0 0 0 0 0 0 6 10 6 0 3 13 16 10 16 23 19 29 39 42 48 58 61 61 71 74 68 77 77 71 71 65 68 71 58 61 55
0 0 0 0 0 0 0 0 0 0 3 0 0 3 6 6 3 6 13 16 10 10 23 16 32 42 48 52 55 58 61 71 74 77 71 65 68 68 71 68 65 68 71 68
0 0 0 0 0 0 0 0 0 0 3 0 0 3 3 10 6 13 10 16 19 16 19 26 32 48 58 58 52 61 61 65 71 71 71 71 65 65 68 71 71 71 71 65
0 0 0 0 0 0 0 0 0 0 6 3 0 3 6 10 3 6 16 29 23 10 23 29 35 48 55 58 61 61 61 61 65 71 74 74 71 68 65 71 71 68 71 68
0 0 0 0 0 0 0 0 0 0 0 0 0 0 6 10 6 3 10 26 29 29 16 39 42 55 58 58 65 65 61 65 61 61 65 71 68 68 65 61 68 68 71 61
0 0 0 0 0 0 0 0 0 0 0 0 0 3 13 16 10 6 16 26 23 32 35 42 61 65 68 61 65 68 61 61 61 68 58 68 74 65 65 68 65 61 61 58
0 0 0 0 0 0 0 0 0 0 0 0 0 3 10 13 16 16 19 23 23 35 48 65 68 74 61 61 68 61 71 68 68 71 71 71 71 71 71 68 68 68 68 55
0 0 0 0 0 0 0 0 0 0 0 0 3 3 6 13 13 16 16 29 32 42 58 61 65 68 68 61 68 68 68 71 74 71 74 74 68 71 71 68 71 68 61 61
0 0 0 0 0 0 0 0 0 0 0 0 6 6 6 10 19 26 29 35 39 42 52 61 65 65 71 68 71 68 68 71 68 65 68 65 61 68 68 58 65 61 61 65
0 26 16 0 0 0 0 0 0 0 0 3 6 6 13 19 26 19 26 42 39 45 48 55 61 65 61 68 71 71 65 65 61 58 58 58 61 58 65 61 58 65 58 58
0 10 0 0 0 0 0 0 0 0 3 3 10 13 16 19 26 26 26 39 45 39 35 48 52 55 58 65 68 68 65 61 55 55 52 55 55 58 58 55 55 52 61 52
0 10 0 0 0 0 0 0 0 0 3 3 13 16 26 29 32 35 42 32 29 32 39 48 52 52 58 61 65 68 58 61 52 48 48 48 52 58 52 55 55 52 58 55
0 0 0 0 0 0 0 0 0 3 13 13 19 16 32 42 39 35 42 32 32 32 35 52 48 55 58 61 65 58 55 55 52 45 55 52 58 52 48 52 52 48 45 52
0 0 13 6 0 3 3 3 13 45 39 19 23 19 32 39 45 32 35 32 35 32 35 39 55 55 58 52 52 52 48 48 52 52 52 52 52 45 39 42 45 48 42 42
0 3 0 13 13 32 13 19 23 26 26 13 13 23 29 35 42 26 35 35 32 32 39 45 52 52 55 61 55 52 52 55 55 55 52 58 52 45 45 42 35 35 32 29
0 6 3 26 13 16 13 10 10 13 16 16 23 19 19 32 29 32 39 42 42 32 35 35 39 48 48 52 48 48 52 55 58 55 48 48 48 45 48 45 32 29 26 26
3 0 13 23 16 10 13 10 10 10 13 19 23 26 32 35 32 35 42 39 42 32 35 35 45 48 52 52 48 48 52 55 48 52 52 45 39 39 42 39 35 26 26 26
6 6 10 10 26 10 13 13 10 10 16 23 26 35 29 32 32 32 35 35 35 35 29 35 42 45 45 45 42 42 45 48 45 48 42 39 35 35 26 26 26 13 13 6
Height
5913 5915 5917 5918 5920 5921 5922 5923 5923 5922 5922 5920 5919 5919 5917 5914 5913 5911 5910 5910 5910 5909 5908 5907 5907 5906 5906 5905 5905 5904 5904 5903 5902 5901 5901 5900 5899 5899 5898 5897 5897 5896 5895 5894
5913 5915 5917 5918 5919 5920 5921 5921 5921 5922 5921 5919 5918 5918 5917 5915 5913 5912 5911 5911 5910 5910 5909 5908 5907 5907 5906 5906 5906 5905 5904 5904 5903 5902 5901 5901 5900 5899 5899 5898 5898 5897 5896 5895
5911 5914 5916 5916 5918 5919 5920 5920 5920 5920 5920 5919 5918 5917 5917 5915 5913 5912 5912 5911 5910 5909 5909 5908 5907 5907 5906 5906 5906 5905 5905 5904 5903 5903 5902 5901 5901 5900 5899 5899 5898 5897 5896 5895
5909 5912 5913 5914 5916 5918 5919 5919 5919 5918 5917 5917 5918 5917 5916 5915 5913 5912 5912 5911 5910 5909 5909 5908 5908 5907 5906 5906 5906 5905 5905 5904 5904 5903 5902 5902 5901 5900 5900 5899 5898 5898 5897 5896
5907 5909 5910 5912 5914 5916 5917 5917 5917 5917 5916 5916 5917 5917 5916 5914 5913 5912 5911 5910 5909 5908 5908 5908 5907 5907 5906 5906 5906 5905 5905 5904 5904 5903 5903 5902 5901 5900 5900 5899 5899 5898 5897 5896
5904 5906 5908 5910 5911 5912 5914 5915 5916 5915 5914 5915 5916 5916 5914 5911 5911 5911 5910 5909 5909 5908 5907 5907 5907 5906 5906 5906 5906 5905 5905 5904 5904 5903 5902 5902 5901 5900 5900 5899 5898 5898 5897 5896
5900 5903 5905 5906 5908 5910 5912 5914 5914 5913 5913 5913 5913 5913 5914 5911 5910 5908 5908 5908 5907 5906 5906 5906 5906 5906 5906 5905 5905 5905 5904 5904 5903 5903 5902 5901 5901 5900 5900 5899 5898 5897 5897 5896
5898 5900 5902 5903 5905 5907 5909 5911 5912 5913 5913 5912 5911 5911 5910 5909 5908 5907 5907 5907 5906 5905 5905 5905 5905 5905 5904 5904 5904 5904 5903 5903 5903 5902 5901 5901 5900 5900 5899 5898 5898 5897 5896 5896
5895 5898 5900 5901 5902 5904 5906 5908 5910 5911 5911 5910 5909 5908 5907 5905 5906 5906 5905 5905 5904 5904 5903 5903 5903 5903 5903 5903 5903 5902 5902 5902 5901 5901 5900 5900 5899 5899 5898 5898 5897 5896 5895 5895
5891 5894 5896 5897 5899 5901 5903 5905 5907 5907 5907 5907 5907 5906 5905 5903 5903 5904 5903 5902 5901 5901 5901 5901 5901 5901 5901 5901 5901 5901 5900 5900 5900 5900 5899 5898 5898 5898 5897 5897 5896 5895 5894 5893
5886 5889 5892 5893 5895 5898 5899 5901 5902 5903 5904 5905 5903 5904 5902 5902 5902 5901 5901 5900 5899 5899 5898 5899 5899 5899 5899 5899 5899 5898 5898 5898 5898 5898 5897 5897 5896 5896 5895 5895 5894 5893 5892 5892
5882 5885 5887 5889 5891 5894 5895 5896 5898 5899 5899 5900 5900 5901 5899 5898 5898 5897 5897 5896 5896 5896 5896 5896 5896 5896 5896 5896 5896 5896 5896 5896 5896 5895 5895 5894 5894 5894 5893 5893 5892 5891 5890 5889
5876 5879 5881 5883 5887 5888 5889 5891 5893 5894 5895 5896 5897 5898 5895 5895 5894 5892 5893 5892 5892 5892 5892 5893 5893 5893 5893 5893 5893 5893 5893 5893 5893 5892 5892 5892 5891 5891 5891 5890 5889 5889 5888 5887
5868 5871 5875 5878 5880 5882 5883 5886 5888 5890 5890 5891 5892 5892 5891 5890 5891 5888 5889 5889 5889 5888 5887 5889 5890 5890 5890 5890 5890 5890 5890 5890 5889 5889 5889 5888 5888 5888 5887 5887 5886 5885 5884 5884
5862 5865 5868 5871 5874 5876 5878 5880 5882 5884 5886 5887 5887 5886 5886 5886 5886 5885 5885 5885 5885 5885 5885 5885 5885 5886 5886 5886 5887 5886 5886 5886 5886 5885 5885 5885 5884 5884 5883 5883 5882 5882 5881 5880
5855 5858 5861 5864 5868 5870 5872 5874 5876 5879 5880 5881 5881 5881 5881 5880 5881 5880 5880 5881 5881 5881 5881 5881 5881 5881 5882 5882 5882 5882 5882 5882 5881 5881 5881 5880 5880 5880 5879 5879 5878 5877 5877 5875
5848 5852 5855 5858 5861 5863 5866 5869 5871 5873 5874 5875 5875 5876 5875 5874 5874 5875 5876 5876 5875 5876 5876 5876 5877 5877 5878 5877 5877 5877 5877 5877 5877 5877 5877 5876 5875 5874 5874 5874 5873 5872 5871 5870
5841 5844 5848 5852 5855 5857 5862 5863 5865 5866 5867 5868 5868 5869 5869 5870 5870 5870 5869 5870 5870 5870 5871 5871 5872 5872 5873 5872 5872 5872 5872 5872 5872 5872 5871 5871 5870 5869 5868 5867 5867 5866 5866 5865
5834 5838 5841 5845 5848 5851 5854 5855 5857 5859 5860 5862 5862 5863 5864 5865 5864 5863 5863 5865 5866 5866 5866 5867 5867 5866 5867 5867 5867 5867 5866 5866 5866 5866 5865 5865 5864 5863 5862 5861 5860 5860 5859 5859
5827 5830 5835 5838 5841 5844 5848 5849 5850 5853 5854 5855 5856 5857 5857 5858 5858 5857 5858 5859 5859 5860 5861 5862 5862 5862 5862 5862 5861 5861 5861 5861 5860 5860 5859 5858 5857 5856 5855 5855 5853 5853 5852 5852
5820 5823 5827 5831 5834 5837 5839 5841 5844 5847 5847 5847 5848 5850 5851 5851 5852 5852 5853 5853 5853 5854 5855 5856 5856 5856 5856 5855 5855 5855 5855 5854 5854 5853 5852 5851 5850 5849 5849 5848 5847 5846 5846 5845
5813 5817 5820 5824 5827 5832 5831 5834 5836 5837 5839 5840 5841 5842 5843 5844 5845 5846 5846 5846 5847 5849 5849 5849 5850 5850 5849 5849 5849 5848 5848 5848 5847 5846 5846 5844 5843 5842 5842 5841 5840 5839 5838 5837
5806 5810 5813 5816 5820 5821 5822 5825 5827 5829 5831 5832 5834 5835 5835 5835 5837 5838 5839 5840 5841 5842 5842 5842 5843 5843 5843 5842 5842 5842 5841 5840 5840 5839 5838 5837 5836 5835 5834 5833 5832 5831 5830 5829
5798 5801 5804 5807 5811 5812 5814 5816 5818 5821 5823 5825 5826 5826 5827 5828 5829 5830 5832 5833 5834 5834 5835 5835 5835 5835 5835 5835 5834 5834 5834 5833 5832 5831 5830 5829 5828 5827 5826 5825 5824 5823 5822 5820
5789 5792 5795 5799 5802 5804 5805 5808 5810 5813 5815 5816 5818 5819 5820 5820 5821 5822 5824 5825 5826 5826 5827 5827 5827 5827 5827 5827 5827 5826 5825 5824 5823 5823 5822 5821 5820 5819 5818 5817 5816 5815 5814 5812
5781 5784 5786 5790 5793 5795 5797 5800 5802 5804 5805 5807 5809 5810 5811 5811 5812 5813 5815 5816 5817 5818 5818 5819 5819 5818 5818 5819 5818 5817 5817 5816 5815 5814 5813 5813 5812 5811 5810 5809 5808 5806 5805 5803
Wind_Speed
8 7 6 4 4 4 4 6 6 5 7 9 7 8 9 9 10 9 7 7 7 7 6 7 7 7 7 7 6 6 6 7 7 7 6 5 5 5 5 5 5 6 6 6
9 8 7 8 7 7 7 8 7 6 7 8 8 7 9 9 9 9 9 9 7 7 7 7 7 7 7 7 7 6 7 7 7 6 6 6 6 5 5 5 5 6 6 6
11 10 10 10 10 9 9 9 8 9 9 8 9 10 9 10 8 8 9 9 8 8 7 7 7 7 6 6 6 6 6 7 7 7 6 6 6 6 6 5 5 5 5 6
13 13 13 12 10 9 10 10 11 11 10 7 8 11 12 12 10 7 8 8 8 8 7 6 7 7 6 6 6 6 6 7 7 7 7 6 6 6 5 5 5 5 5 6
14 14 14 14 13 12 11 10 10 10 10 9 9 11 13 13 11 9 8 8 8 8 7 7 6 7 6 5 5 6 6 6 7 7 7 7 6 5 5 5 6 6 5 5
17 16 15 15 14 13 12 11 11 12 11 12 11 12 13 14 14 11 9 9 9 8 7 7 7 6 6 6 5 5 6 6 6 7 7 7 6 5 5 5 6 6 6 6
17 17 17 16 15 14 13 11 12 12 11 12 11 11 13 14 14 12 10 9 11 10 9 7 8 8 7 7 6 6 6 6 7 7 7 7 6 6 6 6 6 7 7 7
17 17 17 17 17 15 14 13 13 12 12 14 13 12 13 11 13 13 11 10 12 11 11 9 9 9 9 8 8 7 7 7 7 7 7 7 7 7 7 6 6 7 7 7
16 17 16 17 17 17 15 16 15 14 14 16 16 16 14 12 14 13 12 11 11 11 11 10 9 9 9 9 9 8 8 8 8 8 8 7 7 7 7 7 7 8 8 8
18 17 17 18 18 18 18 16 15 16 17 17 17 17 14 14 13 14 12 11 11 11 10 10 11 10 9 9 9 9 9 9 9 9 8 8 8 8 8 8 8 9 9 9
20 19 19 18 18 18 18 17 17 18 18 16 17 18 16 15 15 14 14 12 12 11 11 11 11 11 11 11 11 11 11 11 11 10 10 9 9 10 10 10 10 10 10 11
23 21 21 20 20 19 20 19 18 18 18 17 19 20 18 17 14 13 13 14 14 13 11 11 12 13 13 12 12 13 13 13 12 12 11 11 11 10 11 11 11 12 11 12
25 24 23 22 21 21 21 19 18 19 18 18 19 21 19 18 15 13 14 16 15 14 13 13 13 14 15 14 14 14 14 14 14 13 13 12 12 13 13 13 13 14 13 13
28 28 26 23 21 20 21 20 19 20 20 20 21 21 19 17 15 14 16 18 17 16 14 14 15 15 16 16 16 16 16 16 15 15 14 14 14 15 15 16 16 16 16 16
29 28 28 25 22 20 20 20 19 21 21 20 21 23 20 17 18 18 18 19 19 19 17 17 17 16 17 17 16 17 16 17 17 16 16 16 16 17 17 17 17 18 17 18
30 29 28 28 24 22 21 20 20 21 21 22 23 23 21 20 20 20 20 21 20 21 20 18 18 17 17 17 17 17 17 18 18 18 18 19 19 19 19 19 19 20 19 19
29 29 29 28 25 25 24 22 22 21 21 23 25 23 22 23 21 21 22 22 21 21 20 20 19 19 18 19 18 18 18 19 19 19 20 22 22 21 21 22 22 22 21 21
31 31 30 27 26 27 25 23 22 22 23 24 25 25 26 25 22 21 20 22 23 22 21 21 21 20 20 20 19 19 18 19 20 21 22 23 23 23 24 24 24 23 22 23
32 32 30 28 27 27 25 24 24 24 25 26 25 25 26 26 24 24 22 23 23 23 22 22 22 20 20 21 20 20 20 21 22 23 24 25 26 26 27 27 24 23 23 24
32 32 31 29 28 26 25 25 23 23 26 27 26 25 26 27 26 24 24 24 23 23 23 22 22 23 23 22 22 23 23 23 24 24 25 25 26 26 26 26 24 24 25 26
32 32 31 30 29 27 28 27 24 24 27 27 26 26 26 27 27 26 25 25 25 25 25 24 24 24 24 25 24 24 24 25 25 25 26 26 27 26 26 27 27 27 27 27
30 30 31 30 29 30 31 29 27 28 28 28 28 28 28 29 29 28 26 25 25 26 27 26 26 26 27 26 25 25 25 26 27 27 27 27 28 28 28 29 28 28 28 29
32 32 32 32 31 32 32 32 31 31 30 29 29 30 31 31 30 29 28 27 28 28 28 28 28 27 27 27 27 27 27 28 29 29 29 29 30 30 29 29 29 29 30 30
32 33 33 33 33 34 34 33 33 33 33 32 32 32 31 30 30 29 29 29 30 30 30 30 30 29 28 28 29 29 29 30 31 32 31 32 32 32 31 32 31 30 31 31
34 35 35 36 36 37 37 35 34 35 35 34 33 33 33 33 33 32 32 31 31 31 31 31 31 32 31 30 30 30 31 31 32 31 31 32 33 33 32 32 32 32 32 32
34 35 35 36 37 37 37 36 36 37 36 35 36 36 35 35 35 34 34 34 33 33 33 33 33 32 32 32 32 32 32 32 32 32 32 32 32 32 32 32 32 32 33 32
Wind_Direction
208 212 219 219 208 224 233 249 252 254 289 299 313 319 331 340 339 341 345 352 350 345 344 345 355 3 5 7 7 12 17 20 22 22 21 21 21 22 17 14 12 14 14 14
219 225 225 231 224 232 240 254 261 265 281 297 310 315 325 328 331 333 340 340 335 335 334 333 341 349 357 2 8 11 12 13 13 13 13 15 16 12 9 12 12 9 10 11
226 229 230 232 230 234 244 255 263 270 274 288 314 320 320 311 313 316 323 333 329 327 326 329 329 336 342 350 358 360 3 3 4 5 5 6 6 8 4 3 7 9 11 11
228 228 232 237 240 245 252 253 256 266 279 292 300 304 311 308 307 306 315 327 324 322 321 321 320 328 334 338 343 348 352 355 356 357 359 359 359 359 1 5 8 6 8 5
230 232 235 237 236 238 241 247 260 266 267 276 285 292 299 300 302 301 308 318 315 319 318 316 315 321 329 333 332 338 344 345 348 348 348 346 350 353 351 353 357 1 358 351
228 231 233 236 237 236 243 249 261 271 274 273 269 277 290 297 302 296 302 303 305 313 309 303 303 316 322 324 323 326 333 332 335 336 337 341 343 344 343 340 341 346 346 343
230 231 232 233 236 239 244 250 263 276 280 279 277 276 284 294 299 298 291 299 299 304 301 293 294 308 311 309 312 317 324 322 322 323 323 329 331 334 333 333 331 335 338 336
236 240 240 239 237 238 239 245 251 263 271 281 283 270 277 284 292 293 291 291 292 295 294 288 290 293 297 300 303 306 311 313 312 312 312 316 321 327 329 329 325 326 326 327
232 247 247 245 242 239 240 240 244 256 265 272 271 269 273 277 289 296 290 283 280 282 282 284 290 291 296 299 298 299 302 306 306 307 305 307 308 314 318 320 319 318 319 319
224 231 236 243 242 240 240 241 240 246 258 265 270 273 273 277 284 294 291 284 276 272 273 277 286 289 292 297 295 292 294 298 298 299 301 303 303 305 306 307 308 311 312 313
225 231 234 237 240 239 243 241 241 242 245 259 271 274 279 278 283 285 287 281 278 271 272 279 282 287 289 289 291 290 290 291 294 293 291 291 295 298 298 300 301 305 308 307
227 232 238 237 237 238 239 239 241 245 247 249 263 271 275 277 276 273 274 276 275 270 267 277 282 282 284 286 289 289 289 290 291 291 288 285 288 292 293 295 295 299 304 304
226 228 235 240 235 235 238 239 243 245 247 251 258 269 273 274 272 274 273 277 276 273 266 273 282 282 281 283 286 286 287 286 286 286 285 286 287 288 292 294 293 296 298 300
225 226 229 238 240 235 234 234 241 246 248 253 255 262 263 264 268 268 268 269 272 274 271 272 276 278 279 281 283 284 283 284 284 283 282 282 285 285 287 290 291 294 295 294
228 231 232 234 238 239 241 239 240 246 247 251 257 260 261 258 257 261 264 269 273 277 277 274 273 275 280 280 278 280 281 283 283 281 281 282 284 285 284 287 290 292 293 293
231 232 234 236 236 237 244 246 239 242 247 249 253 257 260 259 258 260 264 267 271 274 274 275 275 276 279 281 277 277 277 278 280 281 281 281 283 282 282 285 287 288 289 291
232 234 234 237 239 239 241 243 243 243 243 248 250 253 255 257 254 260 262 267 269 270 273 276 278 276 278 280 278 276 276 275 278 280 281 281 280 279 279 281 282 283 284 285
233 234 236 237 240 244 242 238 242 243 242 246 249 249 250 254 258 262 263 266 269 272 273 276 278 278 278 279 278 275 274 275 277 279 282 279 278 277 277 278 280 281 284 286
235 237 235 235 240 244 245 243 240 242 245 248 250 252 252 256 260 262 261 264 267 272 274 276 279 279 279 279 278 278 276 276 277 279 281 281 280 277 278 279 279 281 283 283
236 237 236 234 238 245 248 247 245 244 246 248 248 251 255 254 256 259 262 266 268 272 275 275 278 280 280 280 278 277 279 278 279 281 282 282 281 280 279 281 283 286 286 285
236 236 235 233 238 243 244 246 245 244 247 251 250 250 253 254 256 259 262 265 268 274 275 275 277 278 279 281 278 277 278 278 280 283 285 285 283 281 280 282 284 286 286 285
235 235 235 234 236 239 241 243 244 243 245 250 252 252 254 254 254 257 262 265 269 272 273 273 275 277 279 280 280 279 279 280 282 284 285 285 284 284 283 284 284 285 285 284
232 234 233 233 235 239 242 242 245 246 248 249 252 253 254 256 258 257 260 264 267 270 271 272 273 275 277 277 278 280 280 280 281 281 283 283 283 284 283 283 283 284 285 286
231 233 234 236 239 241 242 244 246 249 251 252 254 257 259 261 263 263 264 265 267 270 271 273 273 276 277 278 278 279 280 281 282 280 280 283 283 282 282 283 284 284 285 288
228 233 235 237 241 245 248 248 248 250 252 252 254 257 259 260 261 263 264 266 267 268 270 271 273 275 276 276 277 278 279 280 281 280 280 282 283 281 281 283 285 286 287 289
231 233 235 239 241 245 249 250 251 252 253 254 256 257 258 260 261 263 264 265 267 267 269 270 272 274 274 275 277 278 279 280 281 281 280 281 283 281 281 282 284 285 286 287